• Join FlightAware (Why Join?)
  • Login
  • US Flag 
08:00AM EST


 

Airport Tracker/Info


-or-


 

Live Flight TrackerFlight Track Log ✈ N354LQ ✈ 13-Feb-2014 ✈ KADS - KSGR

Flight Track Log - Related Links

Times and Time Zones

All times are in EST time to prevent confusion due to time zone crossing. See the N354LQ flight status page for this flight to view local times or setup timezone preferences in your user account.

Time Position Orientation Groundspeed Altitude Reporting Facility
EST Latitude Longitude Course Direction KTS MPH feet Rate Location/Type
04:16PM 32.9500 -96.8333 121° Southeast 172 198 1,100  Level Dallas / Fort Worth TRACON
04:16PM 32.9333 -96.8000 121° Southeast 230 265 2,000 1,000 Climbing Dallas / Fort Worth TRACON
04:17PM 32.9500 -96.7333 73° East 235 270 2,600 1,550 Climbing Dallas / Fort Worth TRACON
04:18PM 32.9500 -96.6500 90° East 276 318 5,100 2,436 Climbing Dallas / Fort Worth TRACON
04:19PM 32.9183 -96.5908 123° Southeast 292 336 6,700 2,447 Climbing Fort Worth Center
04:20PM 32.8456 -96.5506 155° Southeast 296 341 9,300 1,935 Climbing Fort Worth Center
04:21PM 32.7525 -96.5764 193° South 318 366 10,700 1,790 Climbing Fort Worth Center
04:22PM 32.6853 -96.6436 220° Southwest 318 366 13,000 2,565 Climbing Fort Worth Center
04:23PM 32.6214 -96.7278 228° Southwest 317 365 16,000 1,935 Climbing Fort Worth Center
04:24PM 32.5603 -96.8117 229° Southwest 340 391 17,000 528 Climbing Fort Worth Center
04:25PM 32.4731 -96.9083 223° Southwest 403 464 17,100 816 Climbing Fort Worth Center
04:26PM 32.3622 -96.9208 185° South 411 473 18,700 1,645 Climbing Fort Worth Center
04:27PM 32.2508 -96.9158 178° South 404 465 20,500 1,113 Climbing Fort Worth Center
04:28PM 32.1414 -96.8697 160° South 454 522 21,000 173 Climbing Fort Worth Center
04:30PM 31.8925 -96.8019 167° South 480 552 21,000  Level Houston Center
04:31PM 31.7628 -96.7608 165° South 481 554 21,000  Level Houston Center
04:32PM 31.6328 -96.7222 166° South 477 549 21,000  Level Houston Center
04:33PM 31.5019 -96.6856 167° South 476 548 21,000  Level Houston Center
04:34PM 31.3492 -96.6392 165° South 478 550 21,000  Level Houston Center
04:35PM 31.2178 -96.5997 166° South 479 551 21,000  Level Houston Center
04:36PM 31.0869 -96.5600 165° South 479 551 21,000 -581 Level Houston Center
04:37PM 30.9581 -96.5244 167° South 471 542 19,800 -2,089 Descending Houston Center
04:38PM 30.8033 -96.4808 166° South 426 490 16,300 -2,516 Descending Houston Center
04:39PM 30.7239 -96.4550 164° South 423 487 14,600 -2,400 Descending Houston Center
04:40PM 30.6614 -96.4381 167° South 400 460 13,100 -2,381 Descending Houston Center
04:40PM 30.6158 -96.4253 166° South 401 461 12,100 -2,613 Descending Houston Center
04:41PM 30.5578 -96.4036 162° South 368 423 10,400 -2,710 Descending Houston Center
04:41PM 30.5197 -96.3869 159° South 370 426 9,300 -2,066 Descending Houston Center
04:42PM 30.4711 -96.3694 163° South 326 375 8,300 -1,742 Descending Houston Center
04:42PM 30.4231 -96.3503 161° South 311 358 7,500 -1,355 Descending Houston Center
04:43PM 30.3908 -96.3372 161° South 264 304 6,900 -484 Descending Houston Center
04:43PM 30.3531 -96.3219 161° South 273 314 7,000  Climbing Houston Center
04:44PM 30.3192 -96.3092 162° South 272 313 6,900  Descending Houston Center
04:44PM 30.2783 -96.2931 161° South 278 320 7,000  Climbing Houston Center
04:45PM 30.2436 -96.2811 163° South 297 342 6,900  Descending Houston Center
04:45PM 30.1983 -96.2608 159° South 297 342 7,000 97 Climbing Houston Center
04:46PM 30.1589 -96.2472 163° South 299 344 7,000  Level Houston Center
04:46PM 30.1156 -96.2286 160° South 299 344 7,000 -393 Level Houston Center
04:47PM 30.0808 -96.2172 164° South 292 336 6,600 -1,143 Descending Houston Center
04:47PM 30.0425 -96.2000 159° South 282 325 5,800 -1,475 Descending Houston Center
04:48PM 30.0111 -96.1889 163° South 266 306 5,100 -774 Descending Houston Center
04:49PM 29.9736 -96.1725 159° South 265 305 5,000 -88 Descending Houston Center
04:49PM 29.9306 -96.1547 160° South 268 308 5,000  Level Houston Center
04:50PM 29.9033 -96.1417 157° South 268 308 5,000  Level Houston Center
04:50PM 29.8781 -96.1053 129° Southeast 288 331 5,000  Level Houston Center
04:51PM 29.8639 -96.0658 112° Southeast 278 320 5,000  Level Houston Center
04:51PM 29.8478 -96.0194 112° Southeast 282 325 5,000 -387 Level Houston Center
04:52PM 29.8328 -95.9714 110° East 280 322 4,600 -787 Descending Houston Center
04:52PM 29.8222 -95.9456 115° Southeast 251 289 4,200 -1,258 Descending Houston Center
04:53PM 29.8081 -95.8986 109° East 257 296 3,300 -1,161 Descending Houston Center
04:53PM 29.7967 -95.8689 114° Southeast 231 266 3,000 -387 Descending Houston Center
04:54PM 29.7856 -95.8339 110° East 228 262 2,900  Descending Houston Center
04:54PM 29.7742 -95.8042 114° Southeast 190 219 3,000 97 Climbing Houston Center
04:55PM 29.7667 -95.7783 108° East 198 228 3,000 -295 Level Houston Center
04:55PM 29.7544 -95.7464 114° Southeast 186 214 2,700 -667 Descending Houston Center
04:56PM 29.7436 -95.7133 111° Southeast 186 214 2,300 -590 Descending Houston Center
04:56PM 29.7353 -95.6956 118° Southeast 164 189 2,100 -387 Descending Houston Center
04:57PM 29.7161 -95.6722 133° Southeast 171 197 1,900 -492 Descending Houston Center
04:57PM 29.6989 -95.6639 157° South 157 181 1,600 -677 Descending Houston Center
04:58PM 29.6781 -95.6619 175° South 155 178 1,200 -689 Descending Houston Center
04:58PM 29.6608 -95.6611 178° South 139 160 900 -677 Descending Houston Center
04:59PM 29.6375 -95.6575 172° South 144 166 500 -585 Descending Houston Center
05:01PM 29.6167 -95.6500 131° Southeast  Level FlightAware Approximate